Starlink 5917

operational
NORAD ID: 55942 Int'l Des: 2023-037 Owner: SPXS Country: US Constellation: starlink
LEOCIRCULAR

About Starlink 5917

Description loading...

Live Position

Loading 3D Globe...

Upcoming Passes

Altitude History

Altitude vs Time

uPlot chart will show altitude changes over time

Two-Line Element Set

1 55942U 23037AE 25344.49538794 .00000449 00000-0 45456-4 0 9992
2 55942 69.9993 149.1887 0003012 272.9429 87.1385 14.98336244150621
Epoch: Dec 10, 2025 • Age: 6 hours

Current Status

Altitude 574.6 km
Velocity 7.58 km/s
Sub-Earth Point 18.78°N, 160.04°E
Launch Date Mar 17, 2023
Age 2.7 years
Type internet

Technical Details

Classification Payload
Mass 305.00 kg
Dry Mass 290.00 kg
Total Mass 305.00 kg
Length 0.20 m
Diameter 2.80 m
Span 9.00 m
Shape Box + pan
Manufacturer SPXS
Bus Type Starlink
Phase Status In Orbit
Owner/State SPXS/US

Large Constellations

Loading constellations...